Location: Proctor
(47.8934°N, 114.3048°W)
Time: 15:28:59
(UTC+00:00)

Courier 1B Rocket - Pass Details

Date: 14 June 2024
Orbit: 920 x 1201 km, 28.2° (Epoch: 16 July)

Event Time Altitude Azimuth Distance (km) Brightness Sun altitude
Rises 13:28:57 0° 217° (SW) 3,962 7.7 15.7°
Reaches altitude 10° 13:33:25 10° 194° (SSW) 3,055 7.4 16.4°
Maximum altitude 13:36:52 14° 166° (SSE) 2,816 7.5 16.9°
Drops below altitude 10° 13:40:21 10° 139° (SE) 3,112 8.1 17.5°
Sets 13:44:58 0° 115° (ESE) 4,093 9.0 18.2°
